STARLINK-1225 (45187 NORAD) Tracking and Keplerian Element Data

This shows tracking and keplerian element data for the satellite.

Feedback or suggestion? Click here.




ElementValue
Catalog45187
NameSTARLINK-1225
Epoch Orbit161
Epoch Day93.91667824
Epoch Year2020
RAAN53.639
Inclination52.9972
Eccentricity0.000181
Argument of Perigee76.1294
Mean Anonmoly107.3194
Mean Motion15.05604343
Decay Rate2.47E-06
L11 45187U 20012K 20093.91667824 .00000247 00000-0 36134-4 0 9991
L22 45187 52.9972 53.6390 0001810 76.1294 107.3194 15.05604343 1610

Live tracking and technical data element details for STARLINK-1225 (NORAD 45187). STARLINK-1225 can be tracked NOW for your location showing map with azimuth and elevation plus other details from your city location.

Track the satellite on the map from your city or location and see movement details for azimuth, elevation, latitude, longitude, range, height, and movement on the map or in text.







IsCatalogInMostPopularTable: catalog: 45187, numindb: 7
Update: records affected: 1



GetName: 45187 STARLINK-1225

Hit Count: updated at: Tue, 07 Apr 2020 16:41:20 GMT